Regional Weather Roundup
Issued by NWS

Home | Current Version | Previous Version | Graphics & Text | Print | Product List | Glossary On
Versions: 1 2 3 4 5 6 7 8 9 10 11 12 13 14 15 16 17 18 19 20 21 22 23 24 25 26 27 28 29 30 31 32 33 34 35 36 37 38 39 40 41 42 43 44 45 46 47 48 49 50
000
ASUS45 KCYS 200910
RWRWY

WYOMING REGIONAL WEATHER ROUNDUP
NATIONAL WEATHER SERVICE CHEYENNE WY
300 AM MDT MON APR 20 2015

NOTE:  "FAIR" INDICATES FEW OR NO CLOUDS BELOW 12,000 FEET
WITH NO SIGNIFICANT WEATHER AND/OR OBSTRUCTIONS TO VISIBILITY.

WYZ001-201000-
YELLOWSTONE NATIONAL PARK

CITY           SKY/WX    TMP DP  RH WIND       PRES   REMARKS
LK YELLOWSTONE   N/A     23  19  85 CALM      30.06F
W YELLOWSTONE  NOT AVBL

$$
WYZ002>013-054>058-071-098>099-201000-
NORTHERN WYOMING

CITY           SKY/WX    TMP DP  RH WIND       PRES   REMARKS
JACKSON        FAIR      36  30  80 CALM      30.03F
CODY           MOCLDY    32  27  80 S5        30.04F WCI  27
GREYBULL       CLOUDY    39  17  41 W5        30.03F
WORLAND        CLOUDY    37  22  54 CALM      30.03F
SHERIDAN       FAIR      24  17  74 S3        30.03F
BUFFALO        CLOUDY    34  17  50 W6        30.02F WCI  29
GILLETTE       FAIR      29  19  66 W10       30.01F WCI  20
HULETT         FAIR      28  19  69 SW6       30.00F WCI  22
NEWCASTLE      FAIR      28  19  69 CALM      30.00F

$$
WYZ014>020-022>026-101>103-201000-
CENTRAL WYOMING

CITY           SKY/WX    TMP DP  RH WIND       PRES   REMARKS
BIG PINEY      FLURRIES  34  26  72 SE7       30.05F WCI  28
PINEDALE       CLOUDY    34  27  75 CALM      30.04F
DUBOIS         PTSUNNY   28  27  93 CALM      30.03F
LANDER         FAIR      32  26  78 NW6       30.03F WCI  26
RIVERTON       FAIR      33  25  72 CALM      30.04F
CASPER         MOCLDY    31  27  85 SW12      30.03F WCI  22
DOUGLAS        FAIR      29  23  78 NW3       30.03F

$$
WYZ021-027>030-104>119-201000-
SOUTHERN WYOMING

CITY           SKY/WX    TMP DP  RH WIND       PRES   REMARKS
EVANSTON       FAIR      35  21  56 SW3       30.02F
FORT BRIDGER   MOSUNNY   32  28  86 N9        30.06S WCI  24
ROCK SPRINGS   FAIR      31  28  89 E7        30.03F WCI  24
DIXON          FAIR      34  30  86 NE7       30.04S WCI  27
RAWLINS        CLOUDY    27  25  92 E6        30.03F WCI  20
SARATOGA       LGT SNOW  27  27 100 W5        30.03F WCI  21
LARAMIE        LGT SNOW  26  24  92 N7        30.01S FOG     WCI  18
CHEYENNE       CLOUDY    30  22  72 W13       30.01F WCI  20
TORRINGTON     FAIR      31  22  69 W8        30.01F WCI  23
PINE BLUFFS    PTSUNNY   30  23  74 W8        30.04R WCI  23

$$



USA.gov is the U.S. government's official web portal to all federal, state and local government web resources and services.